TimeCST,TemperatureF,Dew PointF,Humidity,Sea Level PressureIn,VisibilityMPH,Wind Direction,Wind SpeedMPH,Gust SpeedMPH,PrecipitationIn,Events,Conditions,WindDirDegrees,DateUTC
12:53 AM,46.9,42.1,83,29.97,10.0,Calm,Calm,-,N/A,,Clear,0,2013-02-27 06:53:00
1:53 AM,46.4,42.8,87,29.94,10.0,Calm,Calm,-,N/A,,Clear,0,2013-02-27 07:53:00
2:53 AM,46.0,42.1,86,29.97,10.0,Calm,Calm,-,N/A,,Clear,0,2013-02-27 08:53:00
3:53 AM,45.0,41.0,86,29.96,10.0,Calm,Calm,-,N/A,,Clear,0,2013-02-27 09:53:00
4:53 AM,46.9,39.9,77,29.97,10.0,Calm,Calm,-,N/A,,Clear,0,2013-02-27 10:53:00
5:53 AM,46.9,41.0,80,29.97,10.0,Calm,Calm,-,N/A,,Clear,0,2013-02-27 11:53:00
6:53 AM,46.0,41.0,83,30.00,10.0,Calm,Calm,-,N/A,,Clear,0,2013-02-27 12:53:00
7:53 AM,48.0,43.0,83,30.04,10.0,Calm,Calm,-,N/A,,Clear,0,2013-02-27 13:53:00
8:53 AM,57.2,42.8,59,30.04,10.0,South,4.6,-,N/A,,Clear,180,2013-02-27 14:53:00
9:53 AM,62.1,41.0,46,30.06,10.0,South,5.8,-,N/A,,Clear,190,2013-02-27 15:53:00
10:53 AM,64.0,39.9,41,30.06,10.0,SSW,5.8,-,N/A,,Clear,210,2013-02-27 16:53:00
11:53 AM,66.0,44.1,45,30.04,10.0,SW,6.9,-,N/A,,Clear,220,2013-02-27 17:53:00
12:53 PM,69.1,48.0,47,30.01,10.0,SW,12.7,18.4,N/A,,Clear,220,2013-02-27 18:53:00
1:53 PM,68.0,48.0,49,29.99,10.0,SSW,10.4,20.7,N/A,,Clear,200,2013-02-27 19:53:00
2:53 PM,68.0,50.0,52,29.97,10.0,South,13.8,18.4,N/A,,Partly Cloudy,190,2013-02-27 20:53:00
3:53 PM,68.0,51.1,55,29.96,10.0,SSW,12.7,18.4,N/A,,Clear,200,2013-02-27 21:53:00
4:53 PM,69.1,35.1,29,29.97,10.0,WNW,16.1,21.9,N/A,,Clear,300,2013-02-27 22:53:00
5:00 PM,69.8,30.2,23,29.95,10.0,WNW,12.7,20.7,N/A,,Clear,300,2013-02-27 23:00:00
5:53 PM,64.0,37.9,38,30.00,10.0,NNW,15.0,26.5,N/A,,Clear,330,2013-02-27 23:53:00
6:53 PM,60.1,36.0,41,30.04,6.0,NNW,13.8,20.7,N/A,,Haze,330,2013-02-28 00:53:00
7:53 PM,57.0,37.0,47,30.08,8.0,NNW,6.9,-,N/A,,Clear,340,2013-02-28 01:53:00
8:53 PM,55.9,36.0,47,30.10,10.0,NNW,8.1,-,N/A,,Clear,330,2013-02-28 02:53:00
9:53 PM,54.0,33.1,45,30.12,10.0,NNW,10.4,-,N/A,,Clear,330,2013-02-28 03:53:00
10:53 PM,54.0,30.0,40,30.14,10.0,NNW,11.5,-,N/A,,Clear,330,2013-02-28 04:53:00
11:53 PM,52.0,30.0,43,30.13,10.0,NNW,10.4,-,N/A,,Clear,340,2013-02-28 05:53:00